Weather History for Sturgis, MI

Change the Weather History Date:

Monday, October 28, 2013

  Actual Average (KHAI) Record (KHAI)
Temperature  
Mean Temperature 42 °F -  
Max Temperature 55 °F 59 °F 75 °F (1989)
Min Temperature 30 °F 38 °F 20 °F (1976)
Degree Days  
Heating Degree Days 22    
Moisture  
Dew Point 33 °F    
Average Humidity 72    
Maximum Humidity 93    
Minimum Humidity 47    
Precipitation  
Precipitation 0.00 in - - ()
Sea Level Pressure  
Sea Level Pressure 30.21 in    
Wind  
Wind Speed 2 mph (NE)    
Max Wind Speed 12 mph    
Max Gust Speed -    
Visibility 10 miles    
Events      
Averages and records for this station are not official NWS values.
T = Trace of Precipitation, MM = Missing Value Source: NWS Daily Summary

Daily Weather History Graph

Daily Weather History Graph

Search for Another Location

Airport:

Trip Planner

Search our weather history database for the weather conditions in past years. The results will help you decide how hot, cold, wet, or windy it might be!

Date:

Astronomy

Oct. 28, 2013 Rise Set
Actual Time 8:09 AM EDT 6:40 PM EDT
Civil Twilight 7:40 AM EDT 7:09 PM EDT
Nautical Twilight 7:08 AM EDT 7:42 PM EDT
Astronomical Twilight 6:35 AM EDT 8:14 PM EDT
Moon 1:56 AM EDT (10/28) 3:27 PM EDT (10/28)
Length of Visible Light 11h 28m
Length of Day
10h 31m
Waning Crescent, 34% of the Moon is Illuminated
Oct 28
Waning Crescent
Nov 3
New
Nov 10
First Quarter
Nov 17
Full
Nov 25
Last Quarter

Hourly Weather History & Observations

Time (EDT) Temp. Windchill Dew Point Humidity Pressure Visibility Wind Dir Wind Speed Gust Speed Precip Events Conditions
12:15 AM 37.4 °F 33.8 °F 28.4 °F 70% 30.04 in 10.0 mi SSW 4.6 mph - N/A   Clear
12:34 AM 37.4 °F 34.9 °F 28.4 °F 70% 30.05 in 10.0 mi SSW 3.5 mph - N/A   Clear
12:55 AM 37.4 °F - 28.4 °F 70% 30.06 in 10.0 mi Calm Calm - N/A   Clear
1:15 AM 37.4 °F - 28.4 °F 70% 30.07 in 10.0 mi Calm Calm - N/A   Clear
1:34 AM 37.4 °F - 28.4 °F 70% 30.07 in 10.0 mi Calm Calm - N/A   Clear
1:55 AM 35.6 °F - 28.4 °F 75% 30.08 in 10.0 mi Calm Calm - N/A   Clear
2:15 AM 35.6 °F - 30.2 °F 81% 30.08 in 10.0 mi Calm Calm - N/A   Clear
2:34 AM 35.6 °F - 28.4 °F 75% 30.08 in 10.0 mi Calm Calm - N/A   Clear
2:55 AM 33.8 °F - 28.4 °F 81% 30.09 in 10.0 mi Calm Calm - N/A   Clear
3:15 AM 33.8 °F - 28.4 °F 81% 30.09 in 10.0 mi Calm Calm - N/A   Clear
3:34 AM 35.6 °F - 28.4 °F 75% 30.09 in 10.0 mi Calm Calm - N/A   Clear
3:55 AM 33.8 °F - 28.4 °F 81% 30.09 in 10.0 mi Calm Calm - N/A   Clear
4:15 AM 32.0 °F - 28.4 °F 87% 30.09 in 10.0 mi Calm Calm - N/A   Clear
4:34 AM 32.0 °F - 28.4 °F 87% 30.10 in 10.0 mi Calm Calm - N/A   Clear
4:55 AM 33.8 °F - 28.4 °F 81% 30.10 in 10.0 mi Calm Calm - N/A   Clear
5:15 AM 33.8 °F - 28.4 °F 81% 30.10 in 10.0 mi Calm Calm - N/A   Clear
5:34 AM 32.0 °F - 28.4 °F 87% 30.10 in 10.0 mi Calm Calm - N/A   Clear
5:55 AM 33.8 °F - 28.4 °F 81% 30.12 in 10.0 mi Calm Calm - N/A   Clear
6:15 AM 33.8 °F - 28.4 °F 81% 30.12 in 10.0 mi Calm Calm - N/A   Clear
6:34 AM 30.2 °F - 28.4 °F 93% 30.13 in 10.0 mi Calm Calm - N/A   Clear
6:55 AM 32.0 °F - 28.4 °F 87% 30.14 in 10.0 mi Calm Calm - N/A   Scattered Clouds
7:15 AM 32.0 °F - 28.4 °F 87% 30.14 in 10.0 mi Calm Calm - N/A   Mostly Cloudy
7:34 AM 32.0 °F - 28.4 °F 87% 30.15 in 10.0 mi Calm Calm - N/A   Mostly Cloudy
7:55 AM 33.8 °F - 30.2 °F 87% 30.16 in 10.0 mi Calm Calm - N/A   Overcast
8:15 AM 33.8 °F - 30.2 °F 87% 30.17 in 10.0 mi Calm Calm - N/A   Overcast
8:34 AM 33.8 °F - 30.2 °F 87% 30.18 in 10.0 mi Calm Calm - N/A   Mostly Cloudy
8:55 AM 33.8 °F - 30.2 °F 87% 30.19 in 10.0 mi Calm Calm - N/A   Scattered Clouds
9:15 AM 35.6 °F - 32.0 °F 87% 30.21 in 10.0 mi Calm Calm - N/A   Scattered Clouds
9:34 AM 39.2 °F - 32.0 °F 75% 30.21 in 10.0 mi Calm Calm - N/A   Mostly Cloudy
9:55 AM 39.2 °F - 33.8 °F 81% 30.23 in 10.0 mi Calm Calm - N/A   Mostly Cloudy
10:15 AM 41.0 °F - 33.8 °F 76% 30.24 in 10.0 mi Calm Calm - N/A   Scattered Clouds
10:34 AM 42.8 °F 41.1 °F 33.8 °F 70% 30.24 in 10.0 mi NE 3.5 mph - N/A   Clear
10:55 AM 44.6 °F 41.4 °F 35.6 °F 71% 30.25 in 10.0 mi NE 5.8 mph - N/A   Clear
11:15 AM 46.4 °F 43.5 °F 35.6 °F 66% 30.25 in 10.0 mi NE 5.8 mph - N/A   Clear
11:34 AM 48.2 °F - 35.6 °F 62% 30.25 in 10.0 mi ENE 8.1 mph - N/A   Scattered Clouds
11:55 AM 48.2 °F - 37.4 °F 66% 30.26 in 10.0 mi ENE 5.8 mph - N/A   Clear
12:15 PM 50.0 °F - 37.4 °F 62% 30.26 in 10.0 mi Calm Calm - N/A   Clear
12:34 PM 51.8 °F - 35.6 °F 54% 30.26 in 10.0 mi East 6.9 mph - N/A   Clear
12:55 PM 51.8 °F - 35.6 °F 54% 30.26 in 10.0 mi Calm Calm - N/A   Clear
1:15 PM 51.8 °F - 35.6 °F 54% 30.26 in 10.0 mi East 4.6 mph - N/A   Clear
1:34 PM 53.6 °F - 35.6 °F 51% 30.26 in 10.0 mi Calm Calm - N/A   Clear
1:55 PM 53.6 °F - 35.6 °F 51% 30.25 in 10.0 mi Calm Calm - N/A   Clear
2:14 PM 53.6 °F - 35.6 °F 51% 30.25 in 10.0 mi Calm Calm - N/A   Clear
2:35 PM 55.4 °F - 35.6 °F 47% 30.25 in 10.0 mi Calm Calm - N/A   Clear
2:55 PM 55.4 °F - 35.6 °F 47% 30.24 in 10.0 mi Calm Calm - N/A   Clear
3:14 PM 55.4 °F - 35.6 °F 47% 30.25 in 10.0 mi Calm Calm - N/A   Clear
3:35 PM 55.4 °F - 35.6 °F 47% 30.25 in 10.0 mi North 3.5 mph - N/A   Clear
3:54 PM 55.4 °F - 35.6 °F 47% 30.25 in 10.0 mi Calm Calm - N/A   Clear
4:14 PM 55.4 °F - 35.6 °F 47% 30.25 in 10.0 mi Calm Calm - N/A   Clear
4:35 PM 53.6 °F - 35.6 °F 51% 30.25 in 10.0 mi North 5.8 mph - N/A   Clear
4:54 PM 53.6 °F - 35.6 °F 51% 30.26 in 10.0 mi Calm Calm - N/A   Clear
5:14 PM 53.6 °F - 35.6 °F 51% 30.25 in 10.0 mi NE 3.5 mph - N/A   Clear
5:35 PM 53.6 °F - 37.4 °F 54% 30.26 in 5.0 mi NE 6.9 mph - N/A   Haze
5:54 PM 53.6 °F - 37.4 °F 54% 30.26 in 3.0 mi NE 6.9 mph - N/A   Haze
6:14 PM 51.8 °F - 37.4 °F 58% 30.26 in 4.0 mi NE 4.6 mph - N/A   Haze
6:35 PM 48.2 °F - 37.4 °F 66% 30.26 in 7.0 mi NE 4.6 mph - N/A   Clear
6:54 PM 46.4 °F 45.2 °F 35.6 °F 66% 30.27 in 10.0 mi ENE 3.5 mph - N/A   Clear
7:14 PM 44.6 °F 42.2 °F 35.6 °F 71% 30.28 in 4.0 mi ENE 4.6 mph - N/A   Haze
7:35 PM 46.4 °F 45.2 °F 35.6 °F 66% 30.29 in 7.0 mi ENE 3.5 mph - N/A   Clear
7:54 PM 46.4 °F 44.3 °F 35.6 °F 66% 30.29 in 10.0 mi ENE 4.6 mph - N/A   Clear
8:14 PM 44.6 °F 41.4 °F 35.6 °F 71% 30.30 in 5.0 mi NNE 5.8 mph - N/A   Haze
8:35 PM 44.6 °F 40.2 °F 37.4 °F 76% 30.31 in 10.0 mi NNE 8.1 mph - N/A   Clear
8:54 PM 42.8 °F 36.6 °F 35.6 °F 76% 30.31 in 10.0 mi NNE 11.5 mph - N/A   Clear
9:14 PM 42.8 °F 37.0 °F 35.6 °F 76% 30.32 in 10.0 mi NE 10.4 mph - N/A   Clear
9:35 PM 41.0 °F 34.7 °F 35.6 °F 81% 30.32 in 10.0 mi NE 10.4 mph - N/A   Clear
9:54 PM 41.0 °F 34.3 °F 33.8 °F 76% 30.33 in 10.0 mi NE 11.5 mph - N/A   Clear
10:14 PM 39.2 °F 33.0 °F 35.6 °F 87% 30.33 in 10.0 mi ENE 9.2 mph - N/A   Clear
10:35 PM 39.2 °F 34.2 °F 35.6 °F 87% 30.34 in 10.0 mi ENE 6.9 mph - N/A   Clear
10:54 PM 39.2 °F 33.6 °F 35.6 °F 87% 30.35 in 10.0 mi ENE 8.1 mph - N/A   Clear
11:15 PM 37.4 °F 32.1 °F 35.6 °F 93% 30.35 in 10.0 mi ENE 6.9 mph - N/A   Clear
11:35 PM 37.4 °F 32.1 °F 35.6 °F 93% 30.35 in 10.0 mi ENE 6.9 mph - N/A   Clear
11:54 PM 37.4 °F 32.1 °F 35.6 °F 93% 30.35 in 10.0 mi NE 6.9 mph - N/A   Clear